Notices

What's New in latest Release from April 7th, 2021:

- Updated Glossary, including Speed of Maximum Gust, and Total Hourly Precipitation

- Updated national and regional climate services offices contacts and prices information

- Addition of station inventory lists for 1981-2010, 1971-2000, and 1961-1990 Normals.

If you haven't already, please take our survey and provide feedback about our website: https://eccc.sondage-survey.ca/f/LanguageSelection.aspx?s=442ca660-fcf1-47c0-95a9-59707d6fd709

Hourly Data Report for November 30, 2006

TORONTO CITY
ONTARIO

43°40'00.000" N
79°24'00.000" W
112.50 m
6158355
71508
XTO

Download Data

Hourly Data (November 2006)
Hourly Data Report for November 30, 2006
TIME
LST
Temp Definition
°C
Dew Point Definition
°C
Rel Hum Definition
%
Precip. Amount Definition
mm

Wind Dir Definition
10's deg

Wind Spd Definition
km/h
Visibility Definition
km
Stn Press Definition
kPa
Hmdx Definition


Wind Chill Definition


Weather Definition


00:00 13.6 12.4 92   LegendMM LegendMM   100.24     LegendNANA
01:00 14.3 12.5 89   LegendMM LegendMM   100.23     LegendNANA
02:00 13.9 12.0 88   LegendMM LegendMM   100.21     LegendNANA
03:00 13.6 12.6 94   LegendMM LegendMM   100.18     LegendNANA
04:00 13.5 12.8 96   LegendMM LegendMM   100.13     LegendNANA
05:00 13.4 12.4 94   LegendMM LegendMM   100.03     LegendNANA
06:00 13.8 12.1 89   LegendMM LegendMM   99.97     LegendNANA
07:00 14.1 12.4 89   LegendMM LegendMM   100.00     LegendNANA
08:00 13.6 12.4 92   LegendMM LegendMM   99.96     LegendNANA
09:00 13.3 12.3 94   LegendMM LegendMM   99.94     LegendNANA
10:00 13.1 12.3 95   LegendMM LegendMM   99.92     LegendNANA
11:00 13.7 13.2 97   LegendMM LegendMM   99.85     LegendNANA
12:00 12.6 12.0 96   LegendMM LegendMM   99.80     LegendNANA
13:00 7.9 7.1 95   LegendMM LegendMM   99.84     LegendNANA
14:00 6.8 6.2 96   LegendMM LegendMM   99.83     LegendNANA
15:00 6.1 5.6 97   LegendMM LegendMM   99.85     LegendNANA
16:00 5.8 4.7 93   LegendMM LegendMM   99.95     LegendNANA
17:00 4.6 3.2 91   LegendMM LegendMM   100.04     LegendNANA
18:00 4.3 2.9 91   LegendMM LegendMM   100.06     LegendNANA
19:00 4.1 2.8 91   LegendMM LegendMM   100.19     LegendNANA
20:00 4.5 3.2 91   LegendMM LegendMM   100.23     LegendNANA
21:00 4.7 2.6 86   LegendMM LegendMM   100.24     LegendNANA
22:00 5.0 2.4 83   LegendMM LegendMM   100.23     LegendNANA
23:00 4.9 2.3 83   LegendMM LegendMM   100.23     LegendNANA

Notes on Data Quality.

Legend

  • E = Estimated
  • M = Missing
  • NA = Not Available*
  • [empty] = Indicates an unobserved value
Date modified: